GFSNW_prec_kuchsnow_273.txt.gz
Snowfall_Accumulation
0.0 0.0 0.0 0.0 0.0 0.0 0.0 0.0 11.6 0.0 0.0 6.2 4.6 3.8 0.1 0.0 0.1 0.0 0.6 1.2 2.5 6.3 3.6 4.8 4.4 1.3 1.5 0.0 0.0 0.0 0.0 5.0 6.9 0.6 0.0 0.0 0.0 0.0 0.1 10.0 5.8 5.9 16.7 21.7
0.0 0.0 0.0 0.0 0.0 0.0 0.0 1.9 1.7 0.0 0.0 12.6 7.4 0.8 0.0 0.0 0.0 0.0 1.1 1.6 1.8 3.0 6.9 10.7 8.0 1.6 0.0 0.0 0.0 0.0 0.0 4.0 3.9 2.0 0.0 0.0 0.0 0.0 0.0 1.0 3.8 11.4 25.9 18.6
0.0 0.0 0.0 0.0 0.0 0.0 0.0 6.5 27.4 0.0 0.0 1.0 1.3 2.8 2.5 1.6 0.0 0.0 0.1 1.1 2.4 3.8 5.1 3.8 7.1 1.7 0.0 0.0 0.0 0.0 0.0 1.5 4.5 9.3 5.6 2.0 1.7 0.2 0.2 2.5 18.2 12.0 14.8 11.9
0.0 0.0 0.0 0.0 0.0 0.0 0.0 9.0 14.1 0.2 23.4 8.6 2.5 0.9 1.8 1.8 1.9 0.0 0.3 3.7 1.5 2.9 10.2 4.8 4.4 1.7 0.0 0.0 0.0 0.0 0.1 5.5 4.4 2.8 3.2 1.6 4.9 4.4 4.0 4.8 4.5 13.9 12.7 6.1
0.0 0.0 0.0 0.0 0.0 0.0 0.0 32.8 7.5 0.7 2.2 0.5 5.7 5.5 4.4 1.1 1.2 3.7 3.5 1.0 0.1 0.4 3.3 1.9 4.4 1.4 0.6 1.4 0.0 0.0 0.1 4.1 5.7 13.6 2.8 1.8 9.2 8.9 5.8 2.6 2.9 3.7 2.1 4.4
0.0 0.0 0.0 0.0 0.0 0.0 4.1 0.0 0.0 1.4 5.9 3.8 6.9 6.4 2.9 1.7 0.7 0.3 0.1 0.3 1.1 1.0 0.3 0.0 0.0 0.0 0.2 0.0 0.7 1.1 2.3 4.2 6.4 13.1 2.8 1.6 7.9 9.9 5.5 2.4 1.4 0.9 1.7 2.1
0.0 0.0 0.0 0.0 0.0 0.0 0.0 0.0 0.0 7.7 14.0 3.7 1.5 0.7 0.0 0.7 0.1 1.5 0.0 0.0 1.2 0.0 0.0 0.0 0.0 0.1 0.0 0.0 0.0 0.0 1.7 3.1 8.0 12.4 3.7 22.5 9.0 2.2 1.9 1.9 1.4 0.7 0.8 1.5
0.0 0.0 0.0 0.0 0.0 0.0 0.0 0.0 0.0 5.8 9.9 1.1 0.6 0.2 0.0 0.0 0.0 1.2 0.0 0.0 0.0 0.0 0.0 5.2 4.5 0.5 0.1 0.0 0.0 0.3 0.2 2.7 13.7 15.1 5.5 3.7 1.8 1.0 2.2 1.9 2.3 1.3 2.9 1.0
0.0 0.0 0.0 0.0 0.0 0.0 0.0 0.0 0.0 1.0 8.7 1.9 0.0 0.7 0.1 2.6 2.6 2.8 0.8 0.0 0.0 0.0 3.9 8.2 11.3 3.6 0.7 0.3 0.3 0.1 0.4 1.1 12.9 13.9 19.0 9.9 0.7 0.1 0.0 0.0 2.6 1.5 4.2 3.7
0.0 0.0 0.0 0.0 0.0 0.0 0.0 0.0 0.0 0.0 11.5 0.5 0.0 0.9 1.0 0.0 1.7 3.3 1.8 1.4 0.8 0.2 6.9 12.9 7.1 3.4 2.1 4.2 1.7 0.7 2.2 5.0 18.9 16.1 26.4 3.7 0.2 0.6 0.4 7.6 8.2 4.0 2.8 2.5
0.0 0.0 0.0 0.0 0.0 0.0 0.0 0.0 0.0 0.0 8.1 0.0 0.0 0.0 0.2 0.4 1.1 5.3 2.9 4.3 3.6 5.8 14.0 9.2 6.3 2.7 0.4 0.9 0.0 0.3 1.2 8.4 8.0 9.7 24.7 14.4 0.3 1.2 6.0 5.7 3.7 1.5 1.2 0.7
0.0 0.0 0.0 0.0 0.0 0.0 0.0 0.0 0.0 0.0 0.6 0.5 0.0 0.0 0.0 0.0 0.0 0.8 2.6 1.3 0.6 1.8 7.2 6.8 3.9 4.2 1.8 1.3 5.8 0.2 5.5 3.6 6.9 5.3 4.4 1.6 1.1 4.2 2.0 2.0 4.6 2.0 0.9 0.4
0.0 0.0 0.0 0.0 0.0 0.0 0.0 0.0 0.0 0.0 4.4 7.0 3.3 2.8 0.0 0.0 0.0 0.0 1.9 0.1 0.5 1.7 0.1 4.6 5.3 6.1 0.3 4.3 1.9 2.2 1.4 0.0 4.4 3.7 3.4 3.8 1.8 0.3 0.2 0.5 1.2 0.7 0.6 0.5
0.0 0.0 0.0 0.0 0.0 0.0 0.0 0.0 0.0 0.0 0.5 21.0 10.6 0.0 0.7 0.0 0.0 0.0 0.0 0.0 0.0 0.0 0.0 4.0 3.5 3.5 0.0 2.5 2.4 2.4 2.0 2.8 8.3 10.9 5.1 2.5 0.8 0.9 0.9 0.9 0.5 0.3 1.2 1.6
0.0 0.0 0.0 0.0 0.0 0.0 0.0 0.0 0.0 0.0 0.7 18.8 8.4 0.7 0.0 0.0 0.0 0.0 0.0 0.0 0.0 0.0 3.2 5.0 3.8 0.4 0.6 1.6 2.1 3.2 0.7 4.4 13.0 16.8 6.8 5.9 3.5 1.6 1.1 1.4 2.1 1.3 0.5 0.0
0.0 0.0 0.0 0.0 0.0 0.0 0.0 23.9 0.0 0.0 0.0 9.5 16.3 2.1 2.0 0.0 0.0 0.0 0.0 0.0 0.0 0.2 2.1 3.1 1.3 0.0 0.7 10.4 7.7 1.9 1.0 0.9 2.1 6.3 4.7 5.3 4.2 2.5 1.6 1.4 0.8 0.0 0.0 0.0
0.0 0.0 0.0 0.0 0.0 0.0 0.4 2.4 0.0 0.0 0.0 10.1 21.1 4.7 1.1 0.5 0.7 2.1 0.0 0.6 0.3 0.2 2.3 3.4 1.4 0.7 2.4 12.1 8.9 3.4 2.0 2.2 2.5 2.6 3.4 4.3 1.8 1.5 0.4 0.0 0.0 0.0 0.0 0.0
0.0 0.0 0.0 0.0 0.0 0.0 0.0 0.0 0.0 0.0 0.0 1.7 20.9 12.2 2.2 0.0 2.5 6.4 1.1 2.7 2.8 4.1 2.9 2.4 1.4 1.5 2.5 8.9 0.5 0.0 0.2 0.4 1.3 1.2 0.4 1.0 0.5 0.0 0.0 0.0 0.0 0.0 0.0 0.1
0.0 0.0 0.0 0.0 0.0 3.6 0.0 0.0 0.0 0.0 0.8 16.4 8.3 6.9 14.5 0.0 0.9 2.4 5.7 3.6 14.8 0.8 5.4 1.2 1.7 5.4 12.6 5.1 0.6 0.1 0.3 0.7 0.4 0.0 0.1 0.0 0.3 0.0 0.0 0.0 0.0 0.2 1.9 1.2
0.0 0.0 4.2 90.3 1.5 0.0 0.0 0.0 7.7 10.8 4.2 2.8 4.5 0.7 4.0 0.1 3.2 8.1 9.1 7.2 11.4 13.3 2.8 0.2 5.6 7.7 4.1 1.2 0.2 0.4 0.5 0.3 0.0 0.0 0.0 0.0 0.3 0.4 0.3 0.9 1.2 2.0 2.1 1.2
0.0 55.0 58.1 0.0 0.0 0.0 9.2 58.7 47.4 37.2 29.1 3.8 0.9 0.3 7.6 1.7 9.2 7.0 1.7 10.9 8.3 15.2 10.2 8.2 11.0 13.7 10.6 2.0 0.8 0.1 0.0 0.0 0.0 0.0 0.0 0.2 0.5 1.1 2.5 1.8 0.3 0.5 1.1 1.9
0.0 0.0 0.0 0.6 11.6 35.9 59.7 43.0 20.4 7.8 7.2 1.4 0.9 1.2 2.5 6.3 1.7 8.7 8.2 10.9 11.0 12.1 5.3 14.1 15.1 9.5 1.4 0.3 0.5 0.3 0.2 0.1 0.1 0.3 0.4 0.5 1.2 1.3 1.9 1.8 2.3 2.5 2.5 3.4
0.0 3.8 30.4 31.4 43.7 60.0 43.8 28.6 15.5 7.3 5.2 2.5 2.8 4.9 2.4 4.4 4.7 12.8 6.9 9.4 15.1 4.5 18.8 13.6 10.5 6.0 3.0 2.7 3.1 1.3 0.6 0.2 0.3 0.6 0.5 0.7 1.2 1.2 1.5 2.3 2.7 2.8 3.6 5.3
18.7 38.7 55.1 35.7 36.3 15.9 12.6 6.6 5.2 4.9 4.0 2.3 3.6 1.8 2.2 2.0 9.6 12.2 15.1 12.9 10.5 21.3 13.8 16.6 12.8 8.1 5.8 3.5 2.7 2.0 3.6 2.4 2.9 3.3 3.5 3.9 4.7 4.9 6.4 7.6 8.8 8.5 11.9 15.4
22.0 16.3 26.4 16.0 11.2 9.2 7.8 5.4 3.4 2.2 2.2 2.4 3.3 3.8 3.8 10.0 14.4 9.9 8.8 12.3 13.0 9.6 14.9 13.8 9.7 6.9 5.4 5.1 4.9 5.5 6.4 6.6 7.2 7.4 7.6 8.9 9.0 8.3 11.0 11.7 11.6 10.1 11.1 11.7
9.3 8.1 12.8 8.4 7.1 9.8 7.3 6.9 6.8 3.4 4.4 3.7 6.9 13.1 16.1 16.2 8.8 7.2 7.7 6.6 11.5 15.5 12.1 7.0 5.8 6.3 6.3 7.0 7.4 8.3 8.4 7.9 7.9 7.9 7.4 7.8 8.6 8.1 9.2 9.4 9.7 9.7 8.2 8.5
8.8 12.1 9.6 9.8 8.1 10.6 9.9 7.7 5.9 3.1 3.5 10.4 9.7 12.1 11.2 5.4 8.2 10.4 9.8 18.8 19.6 11.9 11.3 10.4 8.6 9.0 10.1 9.5 9.5 9.9 9.5 8.9 8.4 8.1 7.7 8.2 8.0 6.1 4.3 6.3 9.0 6.7 6.9 6.5

GFSNW_prec_kuchsnow_276.txt.gz
Snowfall_Accumulation
0.0 0.0 0.0 0.0 0.0 0.0 0.0 0.0 11.6 0.0 0.0 6.2 4.6 3.8 0.1 0.0 0.1 0.0 0.6 1.2 2.5 6.3 3.6 4.8 4.4 1.3 1.5 0.0 0.0 0.0 0.0 5.0 6.9 0.6 0.0 0.0 0.0 0.0 0.1 10.0 5.8 5.9 16.7 21.7
0.0 0.0 0.0 0.0 0.0 0.0 0.0 1.9 1.7 0.0 0.0 12.6 7.4 0.8 0.0 0.0 0.0 0.0 1.1 1.6 1.8 3.0 6.9 10.7 8.0 1.6 0.0 0.0 0.0 0.0 0.0 4.0 3.9 2.0 0.0 0.0 0.0 0.0 0.0 1.0 3.8 11.4 25.9 18.6
0.0 0.0 0.0 0.0 0.0 0.0 0.0 6.5 27.4 0.0 0.0 1.0 1.3 2.8 2.5 1.6 0.0 0.0 0.1 1.1 2.4 3.8 5.1 3.8 7.1 1.7 0.0 0.0 0.0 0.0 0.0 1.5 4.5 9.3 5.6 2.0 1.7 0.2 0.2 2.5 18.2 12.0 14.8 11.9
0.0 0.0 0.0 0.0 0.0 0.0 0.0 9.0 14.1 0.2 23.4 8.6 2.5 0.9 1.8 1.8 1.9 0.0 0.3 3.7 1.5 2.9 10.2 4.8 4.4 1.7 0.0 0.0 0.0 0.0 0.1 5.5 4.4 2.8 3.2 1.6 4.9 4.4 4.0 4.8 4.5 13.9 12.7 6.1
0.0 0.0 0.0 0.0 0.0 0.0 0.0 32.8 7.5 0.7 2.2 0.5 5.7 5.5 4.4 1.1 1.2 3.7 3.5 1.0 0.1 0.4 3.3 1.9 4.4 1.4 0.6 1.4 0.0 0.0 0.1 4.1 5.7 13.6 2.8 1.8 9.2 8.9 5.8 2.6 2.9 3.7 2.1 4.4
0.0 0.0 0.0 0.0 0.0 0.0 4.1 0.0 0.0 1.4 5.9 3.8 6.9 6.4 2.9 1.7 0.7 0.3 0.1 0.3 1.1 1.0 0.3 0.0 0.0 0.0 0.2 0.0 0.7 1.1 2.3 4.2 6.4 13.1 2.8 1.6 7.9 9.9 5.5 2.4 1.4 0.9 1.7 2.1
0.0 0.0 0.0 0.0 0.0 0.0 0.0 0.0 0.0 7.7 14.0 3.7 1.5 0.7 0.0 0.7 0.1 1.5 0.0 0.0 1.2 0.0 0.0 0.0 0.0 0.1 0.0 0.0 0.0 0.0 1.7 3.1 8.0 12.4 3.7 22.5 9.0 2.2 1.9 1.9 1.4 0.7 0.8 1.5
0.0 0.0 0.0 0.0 0.0 0.0 0.0 0.0 0.0 5.8 9.9 1.1 0.6 0.2 0.0 0.0 0.0 1.2 0.0 0.0 0.0 0.0 0.0 5.2 4.5 0.5 0.1 0.0 0.0 0.3 0.2 2.7 13.7 15.1 5.5 3.7 1.8 1.0 2.2 1.9 2.3 1.3 2.9 1.0
0.0 0.0 0.0 0.0 0.0 0.0 0.0 0.0 0.0 1.0 8.7 1.9 0.0 0.7 0.1 2.6 2.6 2.8 0.8 0.0 0.0 0.0 3.9 8.2 11.3 3.6 0.7 0.3 0.3 0.1 0.4 1.1 12.9 13.9 19.0 9.9 0.7 0.1 0.0 0.0 2.6 1.5 4.2 3.7
0.0 0.0 0.0 0.0 0.0 0.0 0.0 0.0 0.0 0.0 11.5 0.5 0.0 0.9 1.0 0.0 1.7 3.3 1.8 1.4 0.8 0.2 6.9 12.9 7.1 3.4 2.1 4.2 1.7 0.7 2.2 5.0 18.9 16.1 26.4 3.7 0.2 0.6 0.4 7.6 8.2 4.0 2.8 2.5
0.0 0.0 0.0 0.0 0.0 0.0 0.0 0.0 0.0 0.0 8.1 0.0 0.0 0.0 0.2 0.4 1.1 5.3 2.9 4.3 3.6 5.8 14.0 9.2 6.3 2.7 0.4 0.9 0.0 0.3 1.2 8.4 8.0 9.7 24.7 14.4 0.3 1.2 6.0 5.7 3.7 1.5 1.2 0.7
0.0 0.0 0.0 0.0 0.0 0.0 0.0 0.0 0.0 0.0 0.6 0.5 0.0 0.0 0.0 0.0 0.0 0.8 2.6 1.3 0.6 1.8 7.2 6.8 3.9 4.2 1.8 1.3 5.8 0.2 5.5 3.6 6.9 5.3 4.4 1.6 1.1 4.2 2.0 2.0 4.6 2.0 0.9 0.4
0.0 0.0 0.0 0.0 0.0 0.0 0.0 0.0 0.0 0.0 4.4 7.0 3.3 2.8 0.0 0.0 0.0 0.0 1.9 0.1 0.5 1.7 0.1 4.6 5.3 6.1 0.3 4.3 1.9 2.2 1.4 0.0 4.4 3.7 3.4 3.8 1.8 0.3 0.2 0.5 1.2 0.7 0.6 0.5
0.0 0.0 0.0 0.0 0.0 0.0 0.0 0.0 0.0 0.0 0.5 21.0 10.6 0.0 0.7 0.0 0.0 0.0 0.0 0.0 0.0 0.0 0.0 4.0 3.5 3.5 0.0 2.5 2.4 2.4 2.0 2.8 8.3 10.9 5.1 2.5 0.8 0.9 0.9 0.9 0.5 0.3 1.2 1.6
0.0 0.0 0.0 0.0 0.0 0.0 0.0 0.0 0.0 0.0 0.7 18.8 8.4 0.7 0.0 0.0 0.0 0.0 0.0 0.0 0.0 0.0 3.2 5.0 3.8 0.4 0.6 1.6 2.1 3.2 0.7 4.4 13.0 16.8 6.8 5.9 3.5 1.6 1.1 1.4 2.1 1.3 0.5 0.0
0.0 0.0 0.0 0.0 0.0 0.0 0.0 23.9 0.0 0.0 0.0 9.5 16.3 2.1 2.0 0.0 0.0 0.0 0.0 0.0 0.0 0.2 2.1 3.1 1.3 0.0 0.7 10.4 7.7 1.9 1.0 0.9 2.1 6.3 4.7 5.3 4.2 2.5 1.6 1.4 0.8 0.0 0.0 0.0
0.0 0.0 0.0 0.0 0.0 0.0 0.4 2.4 0.0 0.0 0.0 10.1 21.1 4.7 1.1 0.5 0.7 2.1 0.0 0.6 0.3 0.2 2.3 3.4 1.4 0.7 2.4 12.1 8.9 3.4 2.0 2.2 2.5 2.6 3.4 4.3 1.8 1.5 0.4 0.0 0.0 0.0 0.0 0.0
0.0 0.0 0.0 0.0 0.0 0.0 0.0 0.0 0.0 0.0 0.0 1.7 20.9 13.5 2.2 0.0 2.5 6.4 1.1 2.7 2.8 4.1 2.9 2.4 1.4 1.5 2.5 8.9 0.5 0.0 0.2 0.4 1.3 1.2 0.4 1.0 0.5 0.0 0.0 0.0 0.0 0.0 0.0 0.1
0.0 0.0 0.0 0.0 0.0 3.6 0.0 0.0 0.0 0.0 0.8 16.4 8.3 6.9 15.4 0.0 0.9 2.4 5.7 3.6 14.8 0.8 5.4 1.2 1.7 5.4 12.6 5.1 0.6 0.1 0.3 0.7 0.4 0.0 0.1 0.0 0.3 0.0 0.0 0.0 0.0 0.2 1.9 1.2
0.0 0.0 4.2 91.2 1.5 0.0 0.0 0.0 7.7 10.8 4.2 2.8 4.5 0.7 4.0 0.1 3.2 8.1 9.1 7.2 11.4 13.3 2.8 0.2 5.6 7.7 4.1 1.2 0.2 0.4 0.5 0.3 0.0 0.0 0.0 0.0 0.3 0.4 0.3 0.9 1.2 2.0 2.1 1.2
0.0 55.0 58.3 0.0 0.0 0.0 9.2 63.1 51.4 40.2 30.8 3.8 0.9 0.3 7.6 1.7 9.2 7.0 1.7 10.9 8.3 15.2 10.2 8.2 11.0 13.7 10.6 2.0 0.8 0.1 0.0 0.0 0.0 0.0 0.0 0.2 0.5 1.1 2.5 1.8 0.3 0.5 1.1 1.9
0.0 0.0 0.0 0.6 13.1 38.7 63.9 46.5 23.2 9.2 7.9 1.4 0.9 1.2 2.5 6.3 1.7 8.7 8.2 10.9 11.0 12.1 5.3 14.1 15.1 9.5 1.4 0.3 0.5 0.3 0.2 0.1 0.1 0.3 0.4 0.5 1.2 1.3 1.9 1.8 2.3 2.5 2.5 3.4
0.0 3.8 31.9 34.0 46.3 63.8 46.6 31.7 17.3 7.8 5.2 2.5 2.8 4.9 2.4 4.4 4.7 12.8 6.9 9.4 15.1 4.5 18.8 13.6 10.5 6.0 3.0 2.7 3.1 1.3 0.6 0.2 0.3 0.6 0.5 0.7 1.2 1.2 1.5 2.3 2.7 2.8 3.6 5.3
19.0 39.3 57.5 38.2 38.5 16.8 12.8 6.6 5.2 4.9 4.0 2.3 3.6 1.8 2.2 2.0 9.6 12.2 15.1 12.9 10.5 21.3 13.8 16.6 12.8 8.1 5.8 3.5 2.7 2.0 3.6 2.4 2.9 3.3 3.5 3.9 4.7 4.9 6.4 7.6 8.8 8.5 11.9 15.4
22.6 16.8 27.5 16.8 11.4 9.2 7.8 5.4 3.4 2.2 2.2 2.4 3.3 3.8 3.8 10.0 14.4 9.9 8.8 12.3 13.0 9.6 14.9 13.8 9.7 6.9 5.4 5.1 4.9 5.5 6.4 6.6 7.2 7.4 7.6 8.9 9.0 8.3 11.0 11.7 11.6 10.1 11.1 11.7
9.4 8.1 13.7 8.4 7.2 9.8 7.3 6.9 6.8 3.4 4.4 3.7 6.9 13.1 16.1 16.2 8.8 7.2 7.7 6.6 11.5 15.5 12.1 7.0 5.8 6.3 6.3 7.0 7.4 8.3 8.4 7.9 7.9 7.9 7.4 7.8 8.6 8.1 9.2 9.4 9.7 9.7 8.2 8.5
8.8 12.1 9.8 9.8 8.1 10.6 9.9 7.7 5.9 3.1 3.5 10.4 9.7 12.1 11.2 5.4 8.2 10.4 9.8 18.8 19.6 11.9 11.3 10.4 8.6 9.0 10.1 9.5 9.5 9.9 9.5 8.9 8.4 8.1 7.7 8.2 8.0 6.1 4.3 6.3 9.0 6.7 6.9 6.5

GFSNW_prec_kuchsnow_279.txt.gz
Snowfall_Accumulation
0.0 0.0 0.0 0.0 0.0 0.0 0.0 0.0 11.6 0.0 0.0 6.2 4.6 3.8 0.1 0.0 0.1 0.0 0.6 1.2 2.5 6.3 3.6 4.8 4.4 1.3 1.5 0.0 0.0 0.0 0.0 5.0 6.9 0.6 0.0 0.0 0.0 0.0 0.1 10.0 5.8 5.9 16.7 21.7
0.0 0.0 0.0 0.0 0.0 0.0 0.0 1.9 1.7 0.0 0.0 12.6 7.4 0.8 0.0 0.0 0.0 0.0 1.1 1.6 1.8 3.0 6.9 10.7 8.0 1.6 0.0 0.0 0.0 0.0 0.0 4.0 3.9 2.0 0.0 0.0 0.0 0.0 0.0 1.0 3.8 11.4 25.9 18.6
0.0 0.0 0.0 0.0 0.0 0.0 0.0 6.5 27.4 0.0 0.0 1.0 1.3 2.8 2.5 1.6 0.0 0.0 0.1 1.1 2.4 3.8 5.1 3.8 7.1 1.7 0.0 0.0 0.0 0.0 0.0 1.5 4.5 9.3 5.6 2.0 1.7 0.2 0.2 2.5 18.2 12.0 14.8 11.9
0.0 0.0 0.0 0.0 0.0 0.0 0.0 9.0 14.1 0.2 23.4 8.6 2.5 0.9 1.8 1.8 1.9 0.0 0.3 3.7 1.5 2.9 10.2 4.8 4.4 1.7 0.0 0.0 0.0 0.0 0.1 5.5 4.4 2.8 3.2 1.6 4.9 4.4 4.0 4.8 4.5 13.9 12.7 6.1
0.0 0.0 0.0 0.0 0.0 0.0 0.0 32.8 7.5 0.7 2.2 0.5 5.7 5.5 4.4 1.1 1.2 3.7 3.5 1.0 0.1 0.4 3.3 1.9 4.4 1.4 0.6 1.4 0.0 0.0 0.1 4.1 5.7 13.6 2.8 1.8 9.2 8.9 5.8 2.6 2.9 3.7 2.1 4.4
0.0 0.0 0.0 0.0 0.0 0.0 4.1 0.0 0.0 1.4 5.9 3.8 6.9 6.4 2.9 1.7 0.7 0.3 0.1 0.3 1.1 1.0 0.3 0.0 0.0 0.0 0.2 0.0 0.7 1.1 2.3 4.2 6.4 13.1 2.8 1.6 7.9 9.9 5.5 2.4 1.4 0.9 1.7 2.1
0.0 0.0 0.0 0.0 0.0 0.0 0.0 0.0 0.0 7.7 14.0 3.7 1.5 0.7 0.0 0.7 0.1 1.5 0.0 0.0 1.2 0.0 0.0 0.0 0.0 0.1 0.0 0.0 0.0 0.0 1.7 3.1 8.0 12.4 3.7 22.7 9.0 2.2 1.9 1.9 1.4 0.7 0.8 1.5
0.0 0.0 0.0 0.0 0.0 0.0 0.0 0.0 0.0 5.8 9.9 1.1 0.6 0.2 0.0 0.0 0.0 1.2 0.0 0.0 0.0 0.0 0.0 5.2 4.5 0.5 0.1 0.0 0.0 0.3 0.2 2.7 13.7 15.1 5.5 3.7 1.8 1.0 2.2 1.9 2.3 1.3 2.9 1.0
0.0 0.0 0.0 0.0 0.0 0.0 0.0 0.0 0.0 1.0 8.7 1.9 0.0 0.7 0.1 2.6 2.6 2.8 0.8 0.0 0.0 0.0 3.9 8.2 11.3 3.6 0.7 0.3 0.3 0.1 0.4 1.1 12.9 13.9 19.0 9.9 0.7 0.1 0.0 0.0 2.6 1.5 4.2 3.7
0.0 0.0 0.0 0.0 0.0 0.0 0.0 0.0 0.0 0.0 11.5 0.5 0.0 0.9 1.0 0.0 1.7 3.3 1.8 1.4 0.8 0.2 6.9 12.9 7.1 3.4 2.1 4.2 1.7 0.7 2.2 5.0 18.9 16.1 26.4 3.7 0.2 0.6 0.4 7.6 8.2 4.0 2.8 2.5
0.0 0.0 0.0 0.0 0.0 0.0 0.0 0.0 0.0 0.0 8.1 0.0 0.0 0.0 0.2 0.4 1.1 5.3 2.9 4.3 3.6 5.8 14.0 9.2 6.3 2.7 0.4 0.9 0.0 0.3 1.2 8.4 8.0 9.7 24.7 14.4 0.3 1.2 6.0 5.7 3.7 1.5 1.2 0.7
0.0 0.0 0.0 0.0 0.0 0.0 0.0 0.0 0.0 0.0 0.6 0.5 0.0 0.0 0.0 0.0 0.0 0.8 2.6 1.3 0.6 1.8 7.2 6.8 3.9 4.2 1.8 1.3 5.8 0.2 5.5 3.6 6.9 5.3 4.4 1.6 1.1 4.2 2.0 2.0 4.6 2.0 0.9 0.4
0.0 0.0 0.0 0.0 0.0 0.0 0.0 0.0 0.0 0.0 4.4 7.0 3.3 2.8 0.0 0.0 0.0 0.0 1.9 0.1 0.5 1.7 0.1 4.6 5.3 6.1 0.3 4.3 1.9 2.2 1.4 0.0 4.4 3.7 3.4 3.8 1.8 0.3 0.2 0.5 1.2 0.7 0.6 0.5
0.0 0.0 0.0 0.0 0.0 0.0 0.0 0.0 0.0 0.0 0.5 21.0 10.6 0.0 0.7 0.0 0.0 0.0 0.0 0.0 0.0 0.0 0.0 4.0 3.5 3.5 0.0 2.5 2.4 2.4 2.0 2.8 8.3 10.9 5.1 2.5 0.8 0.9 0.9 0.9 0.5 0.3 1.2 1.6
0.0 0.0 0.0 0.0 0.0 0.0 0.0 0.0 0.0 0.0 0.7 18.8 8.4 0.7 0.0 0.0 0.0 0.0 0.0 0.0 0.0 0.0 3.2 5.0 3.8 0.4 0.6 1.6 2.1 3.2 0.7 4.4 13.0 16.8 6.8 5.9 3.5 1.6 1.1 1.4 2.1 1.3 0.5 0.0
0.0 0.0 0.0 0.0 0.0 0.0 0.0 23.9 0.0 0.0 0.0 9.5 16.3 2.1 2.0 0.0 0.0 0.0 0.0 0.0 0.0 0.2 2.1 3.1 1.3 0.0 0.7 10.4 7.7 1.9 1.0 0.9 2.1 6.3 4.7 5.3 4.2 2.5 1.6 1.4 0.8 0.0 0.0 0.0
0.0 0.0 0.0 0.0 0.0 0.0 0.4 2.4 0.0 0.0 0.0 10.1 21.7 4.7 1.1 0.5 0.7 2.1 0.0 0.6 0.3 0.2 2.3 3.4 1.4 0.7 2.4 12.1 8.9 3.4 2.0 2.2 2.5 2.6 3.4 4.3 1.8 1.5 0.4 0.0 0.0 0.0 0.0 0.0
0.0 0.0 0.0 0.0 0.0 0.0 0.0 0.0 0.0 0.0 0.0 1.7 21.3 14.0 2.2 0.0 2.5 6.4 1.1 2.7 2.8 4.1 2.9 2.4 1.4 1.5 2.5 8.9 0.5 0.0 0.2 0.4 1.3 1.2 0.4 1.0 0.5 0.0 0.0 0.0 0.0 0.0 0.0 0.1
0.0 0.0 0.0 0.0 0.0 3.6 0.0 0.0 0.0 0.0 0.8 16.4 8.3 7.0 16.1 0.0 0.9 2.4 5.7 3.6 14.8 0.8 5.4 1.2 1.7 5.4 12.6 5.1 0.6 0.1 0.3 0.7 0.4 0.0 0.1 0.0 0.3 0.0 0.0 0.0 0.0 0.2 1.9 1.2
0.0 0.0 4.2 91.2 1.5 0.0 0.0 0.0 7.7 10.8 4.2 2.8 4.5 0.7 4.0 0.1 3.2 8.1 9.1 7.2 11.4 13.9 2.8 0.2 5.6 7.7 4.1 1.2 0.2 0.4 0.5 0.3 0.0 0.0 0.0 0.0 0.3 0.4 0.3 0.9 1.2 2.0 2.1 1.2
0.0 55.0 58.3 0.0 0.0 0.0 9.2 65.1 54.2 43.1 32.8 3.8 0.9 0.3 7.6 1.7 9.2 7.0 1.7 11.1 8.3 15.5 10.2 8.2 11.0 13.7 10.6 2.0 0.8 0.1 0.0 0.0 0.0 0.0 0.0 0.2 0.5 1.1 2.5 1.8 0.3 0.5 1.1 1.9
0.0 0.0 0.0 0.6 13.8 39.9 66.2 48.8 25.2 11.2 9.2 1.4 0.9 1.2 2.5 6.3 1.7 8.7 8.2 11.1 11.0 12.2 5.3 14.1 15.1 9.5 1.4 0.3 0.5 0.3 0.2 0.1 0.1 0.3 0.4 0.5 1.2 1.3 1.9 1.8 2.3 2.5 2.5 3.4
0.0 3.8 31.9 35.0 47.7 66.1 48.7 33.6 18.8 8.6 5.2 2.5 2.8 4.9 2.4 4.4 4.7 12.8 6.9 9.4 15.2 4.5 18.8 13.6 10.5 6.0 3.0 2.7 3.1 1.3 0.6 0.2 0.3 0.6 0.5 0.7 1.2 1.2 1.5 2.3 2.7 2.8 3.6 5.3
19.0 40.3 58.4 39.1 39.8 17.5 13.1 6.6 5.2 4.9 4.0 2.3 3.6 1.8 2.2 2.0 9.6 12.2 15.1 12.9 10.5 21.3 13.8 16.6 12.8 8.1 5.8 3.5 2.7 2.0 3.6 2.4 2.9 3.3 3.5 3.9 4.7 4.9 6.4 7.6 8.8 8.5 11.9 15.4
23.3 17.5 27.9 16.8 11.4 9.2 7.8 5.4 3.4 2.2 2.2 2.4 3.3 3.8 3.8 10.0 14.4 9.9 8.8 12.3 13.0 9.6 14.9 13.8 9.7 6.9 5.4 5.1 4.9 5.5 6.4 6.6 7.2 7.4 7.6 8.9 9.0 8.3 11.0 11.7 11.6 10.1 11.1 11.7
9.4 8.5 13.7 8.4 7.2 9.8 7.3 6.9 6.8 3.4 4.4 3.7 6.9 13.1 16.1 16.2 8.8 7.2 7.7 6.6 11.5 15.5 12.1 7.0 5.8 6.3 6.3 7.0 7.4 8.3 8.4 7.9 7.9 7.9 7.4 7.8 8.6 8.1 9.2 9.4 9.7 9.7 8.2 8.5
8.8 12.2 9.8 9.8 8.1 10.6 9.9 7.7 5.9 3.1 3.5 10.4 9.7 12.1 11.2 5.4 8.2 10.4 9.8 18.8 19.6 11.9 11.3 10.4 8.6 9.0 10.1 9.5 9.5 9.9 9.5 8.9 8.4 8.1 7.7 8.2 8.0 6.1 4.3 6.3 9.0 6.7 6.9 6.5

GFSNW_prec_kuchsnow_282.txt.gz
Snowfall_Accumulation
0.0 0.0 0.0 0.0 0.0 0.0 0.0 0.0 11.6 0.0 0.0 6.2 4.6 3.8 0.1 0.0 0.1 0.0 0.6 1.2 2.5 6.3 3.6 4.8 4.4 1.3 1.5 0.0 0.0 0.0 0.0 5.0 6.9 0.6 0.0 0.0 0.0 0.0 0.1 10.0 5.8 5.9 16.7 21.7
0.0 0.0 0.0 0.0 0.0 0.0 0.0 1.9 1.7 0.0 0.0 14.5 7.4 0.8 0.0 0.0 0.0 0.0 1.1 1.6 1.8 3.0 6.9 10.7 8.0 1.6 0.0 0.0 0.0 0.0 0.0 4.0 3.9 2.0 0.0 0.0 0.0 0.0 0.0 1.0 3.8 11.4 25.9 18.6
0.0 0.0 0.0 0.0 0.0 0.0 0.0 6.5 28.3 0.0 0.0 1.0 1.3 2.8 2.5 1.6 0.0 0.0 0.1 1.1 2.4 3.8 5.1 3.8 7.1 1.7 0.0 0.0 0.0 0.0 0.0 1.5 4.5 9.3 5.6 2.0 1.7 0.2 0.2 2.5 18.2 12.0 14.8 11.9
0.0 0.0 0.0 0.0 0.0 0.0 0.0 9.0 15.5 0.2 23.4 9.0 2.5 0.9 1.8 1.8 1.9 0.0 0.3 3.7 1.5 2.9 10.2 4.8 4.4 1.7 0.0 0.0 0.0 0.0 0.1 5.5 4.4 2.8 3.2 1.6 4.9 4.4 4.0 4.8 4.5 13.9 12.7 6.1
0.0 0.0 0.0 0.0 0.0 0.0 0.0 32.8 8.2 0.7 2.2 0.5 6.2 5.5 4.4 1.1 1.2 3.7 3.5 1.0 0.1 0.4 3.3 1.9 4.4 1.4 0.6 1.4 0.0 0.0 0.1 4.1 5.7 13.6 2.8 1.8 9.2 8.9 5.8 2.6 2.9 3.7 2.1 4.4
0.0 0.0 0.0 0.0 0.0 0.0 4.1 0.0 0.0 1.4 5.9 3.8 6.9 6.4 2.9 1.7 0.7 0.3 0.1 0.3 1.1 1.0 0.3 0.0 0.0 0.0 0.2 0.0 0.7 1.1 2.3 4.2 6.4 13.1 2.8 1.6 7.9 9.9 5.5 2.4 1.4 0.9 1.7 2.1
0.0 0.0 0.0 0.0 0.0 0.0 0.0 0.0 0.0 9.2 16.0 4.5 1.5 0.7 0.0 0.7 0.1 1.5 0.0 0.0 1.2 0.0 0.0 0.0 0.0 0.1 0.0 0.0 0.0 0.0 1.7 3.1 8.0 12.4 3.7 22.8 9.0 2.2 1.9 1.9 1.4 0.7 0.8 1.5
0.0 0.0 0.0 0.0 0.0 0.0 0.0 0.0 0.0 8.2 12.3 1.1 0.6 0.2 0.0 0.0 0.0 1.2 0.0 0.0 0.0 0.0 0.0 5.2 4.5 0.5 0.1 0.0 0.0 0.3 0.2 2.7 13.7 15.1 5.5 3.7 1.8 1.0 2.2 1.9 2.3 1.3 2.9 1.0
0.0 0.0 0.0 0.0 0.0 0.0 0.0 0.0 0.0 1.0 11.6 1.9 0.0 0.7 0.1 2.6 2.6 2.8 0.8 0.0 0.0 0.0 3.9 8.2 11.3 4.4 0.7 0.3 0.3 0.1 0.4 1.1 12.9 13.9 19.0 9.9 0.7 0.1 0.0 0.0 2.6 1.5 4.2 3.7
0.0 0.0 0.0 0.0 0.0 0.0 0.0 0.0 0.0 0.0 14.7 0.5 0.0 1.5 1.0 0.0 1.7 3.3 1.8 1.4 0.8 0.2 6.9 12.9 7.1 3.4 2.1 4.2 1.7 0.7 2.2 5.0 18.9 16.1 26.4 3.7 0.2 0.6 0.4 7.6 8.2 4.0 2.8 2.5
0.0 0.0 0.0 0.0 0.0 0.0 0.0 0.0 0.0 0.0 8.1 0.0 0.0 0.0 0.2 0.4 1.1 5.3 2.9 4.3 3.6 5.8 14.0 9.2 6.3 2.7 0.4 0.9 0.0 0.3 1.2 8.4 8.0 9.7 24.7 14.4 0.3 1.2 6.0 5.7 3.7 1.5 1.2 0.7
0.0 0.0 0.0 0.0 0.0 0.0 0.0 0.0 0.0 0.0 0.6 0.5 0.0 0.0 0.0 0.0 0.0 0.8 2.6 1.3 0.6 1.8 7.2 6.8 3.9 4.2 1.8 1.3 5.8 0.2 5.5 3.6 6.9 5.3 4.4 1.6 1.1 4.2 2.0 2.0 4.6 2.0 0.9 0.4
0.0 0.0 0.0 0.0 0.0 0.0 0.0 0.0 0.0 0.0 4.4 7.0 3.3 2.8 0.0 0.0 0.0 0.0 1.9 0.1 0.5 1.7 0.1 4.6 5.3 6.1 0.3 4.3 1.9 2.2 1.4 0.0 4.4 3.7 3.4 3.8 1.8 0.3 0.2 0.5 1.2 0.7 0.6 0.5
0.0 0.0 0.0 0.0 0.0 0.0 0.0 0.0 0.0 0.0 0.5 22.6 10.6 0.0 0.7 0.0 0.0 0.0 0.0 0.0 0.0 0.0 0.0 4.0 3.5 3.5 0.0 2.5 2.4 2.4 2.0 2.8 8.3 10.9 5.1 2.5 0.8 0.9 0.9 0.9 0.5 0.3 1.2 1.6
0.0 0.0 0.0 0.0 0.0 0.0 0.0 0.0 0.0 0.0 0.7 21.2 8.4 0.7 0.0 0.0 0.0 0.0 0.0 0.0 0.0 0.0 3.2 5.0 3.8 0.4 0.6 1.6 2.1 3.2 0.7 4.4 13.0 16.8 6.8 5.9 3.5 1.6 1.1 1.4 2.1 1.3 0.5 0.0
0.0 0.0 0.0 0.0 0.0 0.0 0.0 23.9 0.0 0.0 0.0 9.5 17.1 2.1 2.0 0.0 0.0 0.0 0.0 0.0 0.0 0.2 2.1 3.1 1.3 0.0 0.7 10.4 7.7 1.9 1.0 0.9 2.1 6.3 4.7 5.3 4.2 2.5 1.6 1.4 0.8 0.0 0.0 0.0
0.0 0.0 0.0 0.0 0.0 0.0 0.4 2.5 0.0 0.0 0.0 10.1 23.0 4.7 1.1 0.5 0.7 2.1 0.0 0.6 0.3 0.2 2.3 3.4 1.4 0.7 2.4 12.1 8.9 3.4 2.0 2.2 2.5 2.6 3.4 4.3 1.8 1.5 0.4 0.0 0.0 0.0 0.0 0.0
0.0 0.0 0.0 0.0 0.0 0.0 0.0 0.0 0.0 0.0 0.0 1.7 22.3 14.5 2.2 0.0 2.5 6.4 1.1 2.7 2.8 4.1 2.9 2.4 1.4 1.5 2.5 8.9 0.5 0.0 0.2 0.4 1.3 1.2 0.4 1.0 0.5 0.0 0.0 0.0 0.0 0.0 0.0 0.1
0.0 0.0 0.0 0.0 0.0 3.6 0.0 0.0 0.0 0.0 0.8 18.5 9.1 7.0 16.4 0.0 0.9 2.4 5.7 3.6 14.8 0.8 5.4 1.2 1.7 5.4 12.6 5.1 0.6 0.1 0.3 0.7 0.4 0.0 0.1 0.0 0.3 0.0 0.0 0.0 0.0 0.2 1.9 1.2
0.0 0.0 4.2 91.2 1.5 0.0 0.0 0.0 7.7 13.2 4.2 2.8 5.1 0.7 4.0 0.1 3.2 8.1 9.1 7.2 11.4 15.1 2.8 0.2 5.6 7.7 4.1 1.2 0.2 0.4 0.5 0.3 0.0 0.0 0.0 0.0 0.3 0.4 0.3 0.9 1.2 2.0 2.1 1.2
0.0 55.0 58.3 0.0 0.0 0.0 9.2 66.1 55.9 45.2 35.7 5.0 0.9 0.3 7.6 1.7 9.2 7.1 1.7 11.7 8.3 16.1 10.2 8.2 11.0 13.7 10.6 2.0 0.8 0.1 0.0 0.0 0.0 0.0 0.0 0.2 0.5 1.1 2.5 1.8 0.3 0.5 1.1 1.9
0.0 0.0 0.0 0.6 14.0 40.9 67.6 50.5 26.6 12.4 10.9 1.7 0.9 1.2 2.5 6.3 1.7 8.7 8.2 11.1 11.3 12.4 5.3 14.1 15.1 9.5 1.4 0.3 0.5 0.3 0.2 0.1 0.1 0.3 0.4 0.5 1.2 1.3 1.9 1.8 2.3 2.5 2.5 3.4
0.0 3.8 32.1 35.3 48.4 67.8 50.2 35.0 19.4 9.0 5.5 2.5 2.8 4.9 2.4 4.4 4.7 12.8 6.9 9.4 15.8 4.5 18.8 13.6 10.5 6.0 3.0 2.7 3.1 1.3 0.6 0.2 0.3 0.6 0.5 0.7 1.2 1.2 1.5 2.3 2.7 2.8 3.6 5.3
19.3 40.9 58.9 39.5 40.7 17.9 13.3 6.6 5.2 4.9 4.0 2.3 3.6 1.8 2.2 2.0 9.6 12.3 15.3 13.0 10.5 21.5 13.9 16.6 12.8 8.1 5.8 3.5 2.7 2.0 3.6 2.4 2.9 3.3 3.5 3.9 4.7 4.9 6.4 7.6 8.8 8.5 11.9 15.4
23.6 18.8 28.4 16.8 11.4 9.2 7.8 5.4 3.4 2.2 2.2 2.4 3.3 3.8 3.8 10.0 14.4 9.9 8.8 12.3 13.0 9.6 14.9 13.8 9.7 6.9 5.4 5.1 4.9 5.5 6.4 6.6 7.2 7.4 7.6 8.9 9.0 8.3 11.0 11.7 11.6 10.1 11.1 11.7
9.5 9.4 13.8 8.4 7.2 9.8 7.3 6.9 6.8 3.4 4.4 3.7 6.9 13.1 16.2 16.3 8.8 7.2 7.7 6.6 11.5 15.5 12.1 7.0 5.8 6.3 6.3 7.0 7.4 8.3 8.4 7.9 7.9 7.9 7.4 7.8 8.6 8.1 9.2 9.4 9.7 9.7 8.2 8.5
8.8 12.2 9.8 9.8 8.1 10.6 9.9 7.7 5.9 3.1 3.5 10.5 9.7 12.1 11.2 5.4 8.2 10.4 9.8 18.8 19.6 11.9 11.3 10.4 8.6 9.0 10.1 9.5 9.5 9.9 9.5 8.9 8.4 8.1 7.7 8.2 8.0 6.1 4.3 6.3 9.0 6.7 6.9 6.5

GFSNW_prec_kuchsnow_285.txt.gz
Snowfall_Accumulation
0.0 0.0 0.0 0.0 0.0 0.0 0.0 0.0 11.6 0.0 0.0 6.2 4.6 3.8 0.1 0.0 0.1 0.0 0.6 1.2 2.5 6.3 3.6 4.8 4.4 1.3 1.5 0.0 0.0 0.0 0.0 5.0 6.9 0.6 0.0 0.0 0.0 0.0 0.1 10.0 5.8 5.9 16.7 21.7
0.0 0.0 0.0 0.0 0.0 0.0 0.0 1.9 1.7 0.0 0.0 14.5 7.4 0.8 0.0 0.0 0.0 0.0 1.1 1.6 1.8 3.0 6.9 10.7 8.0 1.6 0.0 0.0 0.0 0.0 0.0 4.0 3.9 2.0 0.0 0.0 0.0 0.0 0.0 1.0 3.8 11.4 25.9 18.6
0.0 0.0 0.0 0.0 0.0 0.0 0.0 6.5 28.3 0.0 0.0 1.0 1.3 2.8 2.5 1.6 0.0 0.0 0.1 1.1 2.4 3.8 5.1 3.8 7.1 1.7 0.0 0.0 0.0 0.0 0.0 1.5 4.5 9.3 5.6 2.0 1.7 0.2 0.2 2.5 18.2 12.0 14.8 11.9
0.0 0.0 0.0 0.0 0.0 0.0 0.0 9.0 15.6 0.2 23.4 9.0 2.5 0.9 1.8 1.8 1.9 0.0 0.3 3.7 1.5 2.9 10.2 4.8 4.4 1.7 0.0 0.0 0.0 0.0 0.1 5.5 4.4 2.8 3.2 1.6 4.9 4.4 4.0 4.8 4.5 13.9 12.7 6.1
0.0 0.0 0.0 0.0 0.0 0.0 0.0 32.8 8.2 0.7 2.2 0.5 6.2 5.5 4.4 1.1 1.2 3.7 3.5 1.0 0.1 0.4 3.3 1.9 4.4 1.4 0.6 1.4 0.0 0.0 0.1 4.1 5.7 13.6 2.8 1.8 9.2 8.9 5.8 2.6 2.9 3.7 2.1 4.4
0.0 0.0 0.0 0.0 0.0 0.0 4.1 0.0 0.0 1.4 5.9 3.8 7.0 6.4 2.9 1.7 0.7 0.3 0.1 0.3 1.1 1.0 0.3 0.0 0.0 0.0 0.2 0.0 0.7 1.1 2.3 4.2 6.4 13.1 2.8 1.6 7.9 9.9 5.5 2.4 1.4 0.9 1.7 2.1
0.0 0.0 0.0 0.0 0.0 0.0 0.0 0.0 0.0 9.5 16.8 4.5 1.5 0.7 0.0 0.7 0.1 1.5 0.0 0.0 1.2 0.0 0.0 0.0 0.0 0.1 0.0 0.0 0.0 0.0 1.7 3.1 8.0 12.4 3.7 22.9 9.0 2.2 1.9 1.9 1.4 0.7 0.8 1.5
0.0 0.0 0.0 0.0 0.0 0.0 0.0 0.0 0.0 8.7 13.2 1.1 0.6 0.2 0.0 0.0 0.0 1.2 0.0 0.0 0.0 0.0 0.0 5.2 4.5 0.5 0.1 0.0 0.0 0.3 0.2 2.7 13.7 15.1 5.5 3.7 1.8 1.0 2.2 1.9 2.3 1.3 2.9 1.0
0.0 0.0 0.0 0.0 0.0 0.0 0.0 0.0 0.0 1.0 12.8 1.9 0.0 0.7 0.1 2.6 2.6 2.8 0.8 0.0 0.0 0.0 3.9 8.2 12.7 5.4 0.7 0.3 0.3 0.1 0.4 1.1 12.9 13.9 19.0 9.9 0.7 0.1 0.0 0.0 2.6 1.5 4.2 3.7
0.0 0.0 0.0 0.0 0.0 0.0 0.0 0.0 0.0 0.0 16.3 0.5 0.0 1.7 1.0 0.0 1.7 3.3 1.8 1.4 0.8 0.2 6.9 12.9 7.1 3.4 2.1 4.2 1.7 0.7 2.2 5.0 18.9 16.1 26.4 3.7 0.2 0.6 0.4 7.6 8.2 4.0 2.8 2.5
0.0 0.0 0.0 0.0 0.0 0.0 0.0 0.0 0.0 0.0 8.1 0.0 0.0 0.0 0.2 0.4 1.1 6.2 2.9 4.3 3.6 5.8 16.2 9.2 6.3 2.7 0.4 0.9 0.0 0.3 1.2 8.4 8.0 9.7 24.7 14.4 0.3 1.2 6.0 5.7 3.7 1.5 1.2 0.7
0.0 0.0 0.0 0.0 0.0 0.0 0.0 0.0 0.0 0.0 0.6 0.5 0.0 0.0 0.0 0.0 0.0 0.8 2.6 1.3 0.6 1.8 7.2 6.8 3.9 4.2 1.8 1.3 5.8 0.2 5.5 3.6 6.9 5.3 4.4 1.6 1.1 4.2 2.0 2.0 4.6 2.0 0.9 0.4
0.0 0.0 0.0 0.0 0.0 0.0 0.0 0.0 0.0 0.0 4.4 7.0 3.3 2.8 0.0 0.0 0.0 0.0 1.9 0.1 0.5 1.7 0.1 4.6 5.3 6.1 0.3 4.3 1.9 2.2 1.4 0.0 4.4 3.7 3.4 3.8 1.8 0.3 0.2 0.5 1.2 0.7 0.6 0.5
0.0 0.0 0.0 0.0 0.0 0.0 0.0 0.0 0.0 0.0 0.5 24.0 10.7 0.0 0.7 0.0 0.0 0.0 0.0 0.0 0.0 0.0 0.0 4.0 3.5 3.5 0.0 2.5 2.4 2.4 2.0 2.8 8.3 10.9 5.1 2.5 0.8 0.9 0.9 0.9 0.5 0.3 1.2 1.6
0.0 0.0 0.0 0.0 0.0 0.0 0.0 0.0 0.0 0.0 0.7 22.5 8.6 0.7 0.0 0.0 0.0 0.0 0.0 0.0 0.0 0.0 3.2 5.0 3.8 0.4 0.6 1.6 2.1 3.2 0.7 4.4 13.0 16.8 6.8 5.9 3.5 1.6 1.1 1.4 2.1 1.3 0.5 0.0
0.0 0.0 0.0 0.0 0.0 0.0 0.0 23.9 0.0 0.0 0.0 9.5 18.2 2.1 2.0 0.0 0.0 0.0 0.0 0.0 0.0 0.2 2.1 3.1 1.3 0.0 0.7 10.4 7.7 1.9 1.0 0.9 2.1 6.3 4.7 5.3 4.2 2.5 1.6 1.4 0.8 0.0 0.0 0.0
0.0 0.0 0.0 0.0 0.0 0.0 0.4 2.7 0.0 0.0 0.0 10.1 24.0 4.7 1.1 0.5 0.7 2.1 0.0 0.6 0.3 0.2 2.3 3.4 1.4 0.7 2.4 12.1 8.9 3.4 2.0 2.2 2.5 2.6 3.4 4.3 1.8 1.5 0.4 0.0 0.0 0.0 0.0 0.0
0.0 0.0 0.0 0.0 0.0 0.0 0.0 0.0 0.0 0.0 0.0 1.7 24.4 14.5 2.2 0.0 2.5 6.4 1.1 2.7 2.8 4.1 2.9 2.4 1.4 1.5 2.5 8.9 0.5 0.0 0.2 0.4 1.3 1.2 0.4 1.0 0.5 0.0 0.0 0.0 0.0 0.0 0.0 0.1
0.0 0.0 0.0 0.0 0.0 3.6 0.0 0.0 0.0 0.0 0.8 21.3 11.0 8.4 17.7 0.0 0.9 2.4 5.7 3.6 14.8 0.8 5.4 1.2 1.7 5.4 12.6 5.1 0.6 0.1 0.3 0.7 0.4 0.0 0.1 0.0 0.3 0.0 0.0 0.0 0.0 0.2 1.9 1.2
0.0 0.0 4.2 91.2 1.5 0.0 0.0 0.0 7.7 13.2 4.2 3.8 6.4 0.7 4.9 0.1 3.2 8.1 9.1 7.2 12.4 15.7 2.8 0.2 5.6 7.7 4.1 1.2 0.2 0.4 0.5 0.3 0.0 0.0 0.0 0.0 0.3 0.4 0.3 0.9 1.2 2.0 2.1 1.2
0.0 55.1 58.3 0.0 0.0 0.0 9.2 67.1 57.3 45.9 36.8 5.4 0.9 0.3 7.6 1.7 9.2 7.3 1.7 11.8 8.3 17.1 10.2 8.2 11.0 13.7 10.6 2.0 0.8 0.1 0.0 0.0 0.0 0.0 0.0 0.2 0.5 1.1 2.5 1.8 0.3 0.5 1.1 1.9
0.0 0.0 0.0 0.6 14.0 41.5 69.7 52.0 27.5 13.2 10.9 1.7 0.9 1.2 2.5 6.3 1.7 8.7 8.2 11.2 11.4 12.4 5.3 14.2 15.1 9.5 1.4 0.3 0.5 0.3 0.2 0.1 0.1 0.3 0.4 0.5 1.2 1.3 1.9 1.8 2.3 2.5 2.5 3.4
0.0 3.8 32.4 35.7 48.4 69.3 51.4 35.9 20.0 9.5 5.5 2.5 2.8 4.9 2.4 4.4 4.7 12.8 6.9 9.4 15.8 4.5 18.8 13.7 10.5 6.0 3.0 2.7 3.1 1.3 0.6 0.2 0.3 0.6 0.5 0.7 1.2 1.2 1.5 2.3 2.7 2.8 3.6 5.3
19.7 41.3 59.3 39.8 41.3 17.9 13.3 6.6 5.3 4.9 4.0 2.3 3.6 1.8 2.2 2.0 9.8 12.6 15.3 13.0 10.5 21.5 13.9 16.6 12.8 8.1 5.8 3.5 2.7 2.0 3.6 2.4 2.9 3.3 3.5 3.9 4.7 4.9 6.4 7.6 8.8 8.5 11.9 15.4
24.9 19.2 28.6 16.8 11.4 9.2 7.8 5.4 3.4 2.2 2.2 2.4 3.3 3.8 3.8 10.0 14.6 10.2 8.8 12.3 13.0 9.6 14.9 13.8 9.7 6.9 5.4 5.1 4.9 5.5 6.4 6.6 7.2 7.4 7.6 8.9 9.0 8.3 11.0 11.7 11.6 10.1 11.1 11.7
9.5 9.8 14.1 8.4 7.2 9.8 7.3 6.9 6.8 3.4 4.4 3.7 6.9 13.3 16.6 16.4 8.8 7.3 7.7 6.6 11.5 15.5 12.1 7.0 5.8 6.3 6.3 7.0 7.4 8.3 8.4 7.9 7.9 7.9 7.4 7.8 8.6 8.1 9.2 9.4 9.7 9.7 8.2 8.5
9.3 12.2 9.8 9.8 8.1 10.6 10.1 7.7 6.4 3.1 3.5 11.4 10.6 12.2 11.4 5.4 8.2 10.4 9.8 18.8 19.6 11.9 11.3 10.4 8.6 9.0 10.1 9.5 9.5 9.9 9.5 8.9 8.4 8.1 7.7 8.2 8.0 6.1 4.3 6.3 9.0 6.7 6.9 6.5

GFSNW_prec_kuchsnow_288.txt.gz
Snowfall_Accumulation
0.0 0.0 0.0 0.0 0.0 0.0 0.0 0.0 11.6 0.0 0.0 6.2 4.6 3.8 0.1 0.0 0.1 0.0 0.6 1.2 2.5 6.3 3.6 4.8 4.4 1.3 1.5 0.0 0.0 0.0 0.0 5.0 6.9 0.6 0.0 0.0 0.0 0.0 0.1 10.0 5.8 5.9 16.7 21.7
0.0 0.0 0.0 0.0 0.0 0.0 0.0 1.9 1.7 0.0 0.0 14.5 7.4 0.8 0.0 0.0 0.0 0.0 1.1 1.6 1.8 3.0 6.9 10.7 8.0 1.6 0.0 0.0 0.0 0.0 0.0 4.0 3.9 2.0 0.0 0.0 0.0 0.0 0.0 1.0 3.8 11.4 25.9 18.6
0.0 0.0 0.0 0.0 0.0 0.0 0.0 6.5 28.3 0.0 0.0 1.0 1.3 2.8 2.5 1.6 0.0 0.0 0.1 1.1 2.4 3.8 5.1 3.8 7.1 1.7 0.0 0.0 0.0 0.0 0.0 1.5 4.5 9.3 5.6 2.0 1.7 0.2 0.2 2.5 18.2 12.0 14.8 11.9
0.0 0.0 0.0 0.0 0.0 0.0 0.0 9.0 15.6 0.2 23.4 9.0 2.5 0.9 1.8 1.8 1.9 0.0 0.3 3.7 1.5 2.9 10.2 4.8 4.4 1.7 0.0 0.0 0.0 0.0 0.1 5.5 4.4 2.8 3.2 1.6 4.9 4.4 4.0 4.8 4.5 13.9 12.7 6.1
0.0 0.0 0.0 0.0 0.0 0.0 0.0 32.8 8.2 0.7 2.2 0.5 6.2 5.5 4.4 1.1 1.2 3.7 3.5 1.0 0.1 0.4 3.3 1.9 4.4 1.4 0.6 1.4 0.0 0.0 0.1 4.1 5.7 13.6 2.8 1.8 9.2 8.9 5.8 2.6 2.9 3.7 2.1 4.4
0.0 0.0 0.0 0.0 0.0 0.0 4.1 0.0 0.0 1.4 5.9 3.8 7.0 6.4 2.9 1.7 0.7 0.3 0.1 0.3 1.1 1.0 0.3 0.0 0.0 0.0 0.2 0.0 0.7 1.1 2.3 4.2 6.4 13.1 2.8 1.6 7.9 9.9 5.5 2.4 1.4 0.9 1.7 2.1
0.0 0.0 0.0 0.0 0.0 0.0 0.0 0.0 0.0 9.7 17.1 4.5 1.5 0.7 0.0 0.7 0.1 1.5 0.0 0.0 1.2 0.0 0.0 0.0 0.0 0.1 0.0 0.0 0.0 0.0 1.7 3.1 8.0 12.4 3.7 23.3 9.0 2.2 1.9 1.9 1.4 0.7 0.8 1.5
0.0 0.0 0.0 0.0 0.0 0.0 0.0 0.0 0.0 8.7 13.5 1.2 0.6 0.2 0.0 0.0 0.0 1.2 0.0 0.0 0.0 0.0 0.0 5.2 4.8 0.5 0.1 0.0 0.0 0.3 0.2 2.7 13.7 15.1 5.5 3.7 1.8 1.0 2.2 1.9 2.3 1.3 2.9 1.0
0.0 0.0 0.0 0.0 0.0 0.0 0.0 0.0 0.0 1.0 13.3 1.9 0.0 0.7 0.1 2.6 2.6 2.8 0.8 0.0 0.0 0.0 3.9 8.7 15.9 7.6 0.7 0.3 0.3 0.1 0.4 1.1 12.9 13.9 19.5 9.9 0.7 0.1 0.0 0.0 2.6 1.5 4.2 3.7
0.0 0.0 0.0 0.0 0.0 0.0 0.0 0.0 0.0 0.0 17.3 0.5 0.0 1.7 1.0 0.0 1.7 3.3 1.8 1.4 0.8 0.2 6.9 14.5 8.9 6.5 2.1 4.2 1.7 0.7 2.2 5.0 19.1 16.1 26.8 3.7 0.2 0.6 0.4 7.6 8.2 4.0 2.8 2.5
0.0 0.0 0.0 0.0 0.0 0.0 0.0 0.0 0.0 0.0 8.1 0.0 0.0 0.0 0.2 0.4 1.1 6.2 2.9 4.3 3.6 5.8 18.2 12.2 8.3 3.5 0.4 1.3 0.0 0.3 1.2 8.4 8.0 9.7 25.0 14.7 0.3 1.2 6.0 5.7 3.7 1.5 1.2 0.7
0.0 0.0 0.0 0.0 0.0 0.0 0.0 0.0 0.0 0.0 0.6 0.5 0.0 0.0 0.0 0.0 0.0 0.8 2.6 1.3 0.6 1.8 9.4 8.1 3.9 5.4 1.8 1.3 5.8 0.2 5.5 3.6 6.9 5.3 4.4 1.6 1.1 4.2 2.0 2.0 4.6 2.0 0.9 0.4
0.0 0.0 0.0 0.0 0.0 0.0 0.0 0.0 0.0 0.0 4.4 7.0 3.3 2.8 0.0 0.0 0.0 0.0 1.9 0.1 0.5 1.7 0.1 4.6 5.3 7.2 0.3 4.3 1.9 2.2 1.4 0.0 4.4 3.7 3.4 3.8 1.8 0.3 0.2 0.5 1.2 0.7 0.6 0.5
0.0 0.0 0.0 0.0 0.0 0.0 0.0 0.0 0.0 0.0 0.5 25.1 10.7 0.0 0.7 0.0 0.0 0.0 0.0 0.0 0.0 0.0 0.0 4.0 3.5 5.2 0.0 2.5 2.4 2.4 2.0 2.8 8.3 10.9 5.1 2.5 0.8 0.9 0.9 0.9 0.5 0.3 1.2 1.6
0.0 0.0 0.0 0.0 0.0 0.0 0.0 0.0 0.0 0.0 0.7 24.4 8.6 0.7 0.0 0.0 0.0 0.0 0.0 0.0 0.0 0.0 4.2 6.4 3.8 0.4 0.6 1.6 2.1 3.2 0.7 4.4 13.0 16.8 6.8 5.9 3.5 1.6 1.1 1.4 2.1 1.3 0.5 0.0
0.0 0.0 0.0 0.0 0.0 0.0 0.0 23.9 0.0 0.0 0.0 9.5 19.7 2.1 2.0 0.0 0.0 0.0 0.0 0.0 0.0 0.2 2.1 3.1 1.3 0.0 0.7 10.4 7.7 1.9 1.0 0.9 2.1 6.3 4.7 5.3 4.2 2.5 1.6 1.4 0.8 0.0 0.0 0.0
0.0 0.0 0.0 0.0 0.0 0.0 0.4 2.7 0.0 0.0 0.0 12.7 26.3 4.8 1.1 0.5 0.7 2.1 0.0 0.6 0.3 0.2 2.3 3.4 1.4 0.7 2.4 12.1 8.9 3.4 2.0 2.2 2.5 2.6 3.4 4.3 1.8 1.5 0.4 0.0 0.0 0.0 0.0 0.0
0.0 0.0 0.0 0.0 0.0 0.0 0.0 0.0 0.0 0.0 0.0 3.6 26.1 14.6 2.2 0.0 2.5 6.4 1.1 2.7 2.8 4.1 2.9 2.4 1.4 1.5 2.5 8.9 0.5 0.0 0.2 0.4 1.3 1.2 0.4 1.0 0.5 0.0 0.0 0.0 0.0 0.0 0.0 0.1
0.0 0.0 0.0 0.0 0.0 3.7 0.0 0.0 0.0 0.0 0.8 23.9 12.1 8.4 17.7 0.0 0.9 2.4 5.7 3.6 16.7 0.8 5.4 1.2 1.7 5.4 14.9 5.1 0.6 0.1 0.3 0.7 0.4 0.0 0.1 0.0 0.3 0.0 0.0 0.0 0.0 0.2 1.9 1.2
0.0 0.0 4.2 91.2 1.5 0.0 0.0 0.0 7.7 13.2 4.2 3.8 6.8 0.7 4.9 0.1 3.2 10.9 12.0 7.2 13.8 17.1 2.8 0.2 5.6 7.7 4.1 1.2 0.2 0.4 0.5 0.3 0.0 0.0 0.0 0.0 0.3 0.4 0.3 0.9 1.2 2.0 2.1 1.2
0.0 55.3 58.3 0.0 0.0 0.0 9.2 67.6 57.9 45.9 37.4 5.6 0.9 0.3 7.6 1.7 9.2 9.2 1.7 12.6 8.8 17.9 10.6 8.2 11.4 13.7 10.6 2.0 0.8 0.1 0.0 0.0 0.0 0.0 0.0 0.2 0.5 1.1 2.5 1.8 0.3 0.5 1.1 1.9
0.0 0.0 0.0 0.6 14.0 41.6 70.6 52.0 28.1 13.8 11.1 1.7 0.9 1.2 2.5 6.3 1.7 10.3 9.3 11.9 11.8 12.7 5.3 14.8 15.2 9.5 1.4 0.3 0.5 0.3 0.2 0.1 0.1 0.3 0.4 0.5 1.2 1.3 1.9 1.8 2.3 2.5 2.5 3.4
0.0 4.0 32.6 36.0 48.6 69.8 52.2 35.9 20.0 9.9 5.5 2.5 2.8 4.9 2.4 4.4 4.7 13.6 7.1 9.4 15.8 4.5 18.8 13.8 10.5 6.0 3.0 2.7 3.1 1.3 0.6 0.2 0.3 0.6 0.5 0.7 1.2 1.2 1.5 2.3 2.7 2.8 3.6 5.3
22.0 41.9 60.1 40.3 41.9 17.9 13.3 6.6 5.3 5.1 4.1 2.6 3.9 2.3 2.2 2.0 10.7 12.8 15.3 13.0 10.5 21.6 13.9 16.6 12.8 8.1 5.8 3.5 2.7 2.0 3.6 2.4 2.9 3.3 3.5 3.9 4.7 4.9 6.4 7.6 8.8 8.5 11.9 15.4
28.1 19.2 28.6 16.8 11.4 9.2 7.8 5.4 3.4 2.2 2.2 2.9 4.1 5.2 5.1 10.8 15.3 10.2 8.8 12.3 13.0 9.6 14.9 13.8 9.7 6.9 5.4 5.1 4.9 5.5 6.4 6.6 7.2 7.4 7.6 8.9 9.0 8.3 11.0 11.7 11.6 10.1 11.1 11.7
10.8 10.9 14.1 8.4 7.2 9.8 7.3 6.9 6.8 3.4 5.4 5.1 6.9 14.5 19.9 18.6 8.8 7.5 7.7 6.6 11.5 15.5 12.1 7.0 5.8 6.3 6.3 7.0 7.4 8.3 8.4 7.9 7.9 7.9 7.4 7.8 8.6 8.1 9.2 9.4 9.7 9.7 8.2 8.5
10.1 12.2 9.8 9.8 8.1 10.6 10.1 7.7 6.4 3.1 4.6 13.6 13.9 14.5 12.1 6.4 8.2 10.4 9.8 18.8 19.6 11.9 11.3 10.4 8.6 9.0 10.1 9.5 9.5 9.9 9.5 8.9 8.4 8.1 7.7 8.2 8.0 6.1 4.3 6.3 9.0 6.7 6.9 6.5

GFSNW_prec_kuchsnow_291.txt.gz
Snowfall_Accumulation
0.0 0.0 0.0 0.0 0.0 0.0 0.0 0.0 11.6 0.0 0.0 6.2 4.6 3.8 0.1 0.0 0.1 0.0 0.6 1.2 2.5 6.3 3.6 4.8 4.4 1.3 1.5 0.0 0.0 0.0 0.0 5.0 6.9 0.6 0.0 0.0 0.0 0.0 0.1 10.0 5.8 5.9 16.7 21.7
0.0 0.0 0.0 0.0 0.0 0.0 0.0 1.9 1.7 0.0 0.0 14.5 7.4 0.8 0.0 0.0 0.0 0.0 1.1 1.6 1.8 3.0 6.9 10.7 8.0 1.6 0.0 0.0 0.0 0.0 0.0 4.0 3.9 2.0 0.0 0.0 0.0 0.0 0.0 1.0 3.8 11.4 25.9 18.6
0.0 0.0 0.0 0.0 0.0 0.0 0.0 6.5 28.3 0.0 0.0 1.0 1.3 2.8 2.5 1.6 0.0 0.0 0.1 1.1 2.4 3.8 5.1 3.8 7.1 1.7 0.0 0.0 0.0 0.0 0.0 1.5 4.5 9.3 5.6 2.0 1.7 0.2 0.2 2.5 18.2 12.0 14.8 11.9
0.0 0.0 0.0 0.0 0.0 0.0 0.0 9.0 15.6 0.2 23.5 9.1 2.5 0.9 1.8 1.8 1.9 0.0 0.3 3.7 1.5 2.9 10.2 4.8 4.4 1.7 0.0 0.0 0.0 0.0 0.1 5.5 4.4 2.8 3.2 1.6 4.9 4.4 4.0 4.8 4.5 13.9 12.7 6.1
0.0 0.0 0.0 0.0 0.0 0.0 0.0 32.8 8.2 0.7 2.2 0.5 6.2 5.5 4.4 1.1 1.2 3.7 3.5 1.0 0.1 0.4 3.3 1.9 4.4 1.4 0.6 1.4 0.0 0.0 0.1 4.1 5.7 13.6 2.8 1.8 9.2 8.9 5.8 2.6 2.9 3.7 2.1 4.4
0.0 0.0 0.0 0.0 0.0 0.0 4.1 0.0 0.0 1.4 5.9 3.8 7.0 6.4 2.9 1.7 0.7 0.3 0.1 0.3 1.1 1.0 0.3 0.0 0.0 0.0 0.2 0.0 0.7 1.1 2.3 4.2 6.4 13.4 2.8 1.6 7.9 9.9 5.5 2.4 1.4 0.9 1.7 2.1
0.0 0.0 0.0 0.0 0.0 0.0 0.0 0.0 0.0 9.7 17.3 4.5 1.5 0.7 0.0 0.7 0.1 1.5 0.0 0.0 1.2 0.0 0.0 0.0 0.0 0.1 0.0 0.0 0.0 0.0 1.7 3.1 8.0 12.8 3.7 23.8 9.0 2.2 1.9 1.9 1.4 0.7 0.8 1.5
0.0 0.0 0.0 0.0 0.0 0.0 0.0 0.0 0.0 8.7 13.7 1.2 0.6 0.2 0.0 0.0 0.0 1.2 0.0 0.0 0.0 0.0 0.0 5.3 4.8 0.5 0.1 0.0 0.0 0.3 0.2 2.7 13.7 15.9 6.1 3.7 1.8 1.0 2.2 1.9 2.3 1.3 2.9 1.0
0.0 0.0 0.0 0.0 0.0 0.0 0.0 0.0 0.0 1.0 13.3 1.9 0.0 0.7 0.1 2.6 2.6 2.8 0.8 0.0 0.0 0.0 3.9 8.8 16.1 7.6 0.7 0.3 0.3 0.1 0.4 1.1 12.9 13.9 21.3 10.5 0.7 0.1 0.0 0.0 2.6 1.5 4.2 3.7
0.0 0.0 0.0 0.0 0.0 0.0 0.0 0.0 0.0 0.0 17.7 0.5 0.0 1.8 1.0 0.0 1.7 3.3 1.8 1.4 0.8 0.2 6.9 14.7 9.1 6.7 2.1 4.2 1.7 0.7 2.2 5.0 19.1 16.1 26.8 3.7 0.2 0.6 0.4 7.6 8.2 4.0 2.8 2.5
0.0 0.0 0.0 0.0 0.0 0.0 0.0 0.0 0.0 0.0 8.1 0.0 0.0 0.0 0.2 0.4 1.1 6.2 2.9 4.3 3.6 5.8 18.3 12.4 8.3 3.5 0.4 1.3 0.0 0.3 1.2 8.4 8.0 9.7 25.2 14.9 0.3 1.2 6.0 5.7 3.7 1.5 1.2 0.7
0.0 0.0 0.0 0.0 0.0 0.0 0.0 0.0 0.0 0.0 0.6 0.5 0.0 0.0 0.0 0.0 0.0 0.8 2.6 1.3 0.6 1.8 9.5 8.3 4.4 6.3 1.8 1.3 6.1 0.2 5.5 3.6 6.9 5.3 4.4 1.6 1.1 4.2 2.0 2.0 4.6 2.0 0.9 0.4
0.0 0.0 0.0 0.0 0.0 0.0 0.0 0.0 0.0 0.0 4.4 7.1 3.3 2.8 0.0 0.0 0.0 0.0 1.9 0.1 0.5 1.7 0.1 4.7 5.8 9.4 0.3 5.1 1.9 2.2 1.4 0.0 4.4 3.7 3.4 3.8 1.8 0.3 0.2 0.5 1.2 0.7 0.6 0.5
0.0 0.0 0.0 0.0 0.0 0.0 0.0 0.0 0.0 0.0 0.5 25.3 10.7 0.0 0.7 0.0 0.0 0.0 0.0 0.0 0.0 0.0 0.0 4.6 5.1 6.5 0.0 2.5 2.4 2.4 2.0 2.8 8.3 10.9 5.1 2.5 0.8 0.9 0.9 0.9 0.5 0.3 1.2 1.6
0.0 0.0 0.0 0.0 0.0 0.0 0.0 0.0 0.0 0.0 0.7 24.4 8.6 0.7 0.0 0.0 0.0 0.0 0.0 0.0 0.0 0.0 4.3 7.1 5.1 0.5 0.7 1.8 2.3 3.2 0.7 4.4 13.0 16.8 6.8 5.9 3.5 1.6 1.1 1.4 2.1 1.3 0.5 0.0
0.0 0.0 0.0 0.0 0.0 0.0 0.0 23.9 0.0 0.0 0.0 9.5 19.8 2.1 2.0 0.0 0.0 0.0 0.0 0.0 0.0 0.2 2.3 3.6 1.5 0.0 0.7 11.9 9.0 1.9 1.0 0.9 2.1 6.3 4.7 5.3 4.2 2.5 1.6 1.4 0.8 0.0 0.0 0.0
0.0 0.0 0.0 0.0 0.0 0.0 0.4 2.7 0.0 0.0 0.0 15.3 29.8 5.7 1.1 0.5 0.7 2.1 0.0 0.6 0.3 0.2 2.7 4.1 1.6 0.7 2.4 12.7 10.2 3.4 2.0 2.2 2.5 2.6 3.4 4.3 1.8 1.5 0.4 0.0 0.0 0.0 0.0 0.0
0.0 0.0 0.0 0.0 0.0 0.0 0.0 0.0 0.0 0.0 0.0 4.1 27.6 14.6 2.2 0.0 2.5 6.4 1.1 2.7 2.8 4.1 2.9 2.4 1.6 1.5 2.7 10.4 0.5 0.0 0.2 0.4 1.3 1.2 0.4 1.0 0.5 0.0 0.0 0.0 0.0 0.0 0.0 0.1
0.0 0.0 0.0 0.0 0.0 3.7 0.0 0.0 0.0 0.0 0.8 25.0 12.9 8.6 17.7 0.0 0.9 2.4 5.7 3.6 19.0 0.8 7.5 1.9 1.7 5.4 15.2 5.1 0.6 0.1 0.3 0.7 0.4 0.0 0.1 0.0 0.3 0.0 0.0 0.0 0.0 0.2 1.9 1.2
0.0 0.0 4.2 91.2 1.5 0.0 0.0 0.0 7.8 13.4 4.2 4.2 7.0 0.7 4.9 0.1 3.2 10.9 12.0 7.2 16.2 20.3 3.9 0.2 6.2 8.1 4.1 1.2 0.2 0.4 0.5 0.3 0.0 0.0 0.0 0.0 0.3 0.4 0.3 0.9 1.2 2.0 2.1 1.2
0.0 55.3 58.3 0.0 0.0 0.0 9.2 67.6 58.2 46.1 37.9 5.6 0.9 0.3 7.6 1.7 9.2 9.2 1.9 14.4 10.9 21.3 11.5 9.7 12.4 13.8 10.6 2.0 0.8 0.1 0.0 0.0 0.0 0.0 0.0 0.2 0.5 1.1 2.5 1.8 0.3 0.5 1.1 1.9
0.0 0.0 0.0 0.6 14.2 41.8 71.1 52.0 28.9 14.1 11.1 1.7 0.9 1.2 2.5 6.3 1.7 10.6 10.2 14.1 13.4 14.1 5.3 16.2 15.6 9.5 1.4 0.3 0.5 0.3 0.2 0.1 0.1 0.3 0.4 0.5 1.2 1.3 1.9 1.8 2.3 2.5 2.5 3.4
0.0 4.0 33.7 36.4 48.9 70.4 52.9 35.9 20.0 10.1 5.7 2.5 3.1 5.5 2.8 4.4 4.7 14.4 8.7 12.1 17.4 4.5 19.4 14.1 10.5 6.0 3.0 2.7 3.1 1.3 0.6 0.2 0.3 0.6 0.5 0.7 1.2 1.2 1.5 2.3 2.7 2.8 3.6 5.3
23.0 44.9 61.8 40.3 42.2 17.9 13.3 6.6 5.3 5.3 4.1 2.6 3.9 3.2 3.2 2.6 12.6 14.0 17.1 13.4 10.5 21.8 14.1 16.7 12.8 8.1 5.8 3.5 2.7 2.0 3.6 2.4 2.9 3.3 3.5 3.9 4.7 4.9 6.4 7.6 8.8 8.5 11.9 15.4
29.4 21.1 29.3 16.8 11.4 9.2 7.8 5.4 3.4 2.2 2.2 2.9 4.1 5.9 5.8 11.9 17.0 11.0 9.5 12.4 13.2 9.6 15.0 13.8 9.7 6.9 5.4 5.1 4.9 5.5 6.4 6.6 7.2 7.4 7.6 8.9 9.0 8.3 11.0 11.7 11.6 10.1 11.1 11.7
11.5 10.9 14.6 8.4 7.2 9.8 7.3 6.9 6.8 3.4 5.4 5.1 7.4 16.0 21.5 19.8 9.5 8.1 7.9 6.6 11.5 15.5 12.1 7.0 5.8 6.3 6.3 7.0 7.4 8.3 8.4 7.9 7.9 7.9 7.4 7.8 8.6 8.1 9.2 9.4 9.7 9.7 8.2 8.5
10.6 12.2 9.8 9.8 8.1 10.6 10.1 7.7 6.4 3.1 4.6 13.6 15.0 17.3 14.3 8.5 9.6 10.7 9.8 18.8 19.6 11.9 11.3 10.4 8.6 9.0 10.1 9.5 9.5 9.9 9.5 8.9 8.4 8.1 7.7 8.2 8.0 6.1 4.3 6.3 9.0 6.7 6.9 6.5

GFSNW_prec_kuchsnow_297.txt.gz
Snowfall_Accumulation
0.0 0.0 0.0 0.0 0.0 0.0 0.0 0.0 11.6 0.0 0.0 6.2 4.6 3.8 0.1 0.0 0.1 0.0 0.6 1.2 2.5 6.3 3.6 4.8 4.4 1.3 1.5 0.0 0.0 0.0 0.0 5.0 6.9 0.6 0.0 0.0 0.0 0.0 0.1 10.0 5.8 5.9 16.7 21.7
0.0 0.0 0.0 0.0 0.0 0.0 0.0 1.9 1.7 0.0 0.0 14.5 7.4 0.8 0.0 0.0 0.0 0.0 1.1 1.6 1.8 3.0 6.9 10.7 8.0 1.6 0.0 0.0 0.0 0.0 0.0 4.0 3.9 2.0 0.0 0.0 0.0 0.0 0.0 1.0 3.8 11.4 25.9 18.6
0.0 0.0 0.0 0.0 0.0 0.0 0.0 6.5 28.3 0.0 0.0 1.0 1.3 2.8 2.5 1.6 0.0 0.0 0.1 1.1 2.4 3.8 5.1 3.8 7.1 1.7 0.0 0.0 0.0 0.0 0.0 1.5 4.5 9.3 5.6 2.0 1.7 0.2 0.2 2.5 18.2 12.0 14.8 11.9
0.0 0.0 0.0 0.0 0.0 0.0 0.0 9.0 15.6 0.2 23.5 9.1 2.5 0.9 1.8 1.8 1.9 0.0 0.3 3.7 1.5 2.9 10.2 4.8 4.4 1.7 0.0 0.0 0.0 0.0 0.1 5.5 4.4 2.8 3.2 1.6 4.9 4.4 4.0 4.8 4.5 13.9 12.7 6.1
0.0 0.0 0.0 0.0 0.0 0.0 0.0 32.8 8.2 0.7 2.2 0.5 6.2 5.5 4.4 1.1 1.2 3.7 3.5 1.0 0.1 0.4 3.3 1.9 4.4 1.4 0.6 1.4 0.0 0.0 0.1 4.1 5.7 13.6 2.8 1.8 9.2 8.9 5.8 2.6 2.9 3.7 2.1 4.4
0.0 0.0 0.0 0.0 0.0 0.0 4.1 0.0 0.0 1.4 5.9 3.8 7.0 6.4 2.9 1.7 0.7 0.3 0.1 0.3 1.1 1.0 0.3 0.0 0.0 0.0 0.2 0.0 0.7 1.1 2.3 4.2 6.4 13.4 2.8 1.6 7.9 9.9 5.5 2.4 1.4 0.9 1.7 2.1
0.0 0.0 0.0 0.0 0.0 0.0 0.0 0.0 0.0 9.7 17.4 4.5 1.5 0.7 0.0 0.7 0.1 1.5 0.0 0.0 1.2 0.0 0.0 0.0 0.0 0.1 0.0 0.0 0.0 0.0 1.7 3.1 8.0 12.8 3.7 23.8 9.0 2.2 1.9 1.9 1.4 0.7 0.8 1.5
0.0 0.0 0.0 0.0 0.0 0.0 0.0 0.0 0.0 8.7 13.9 1.2 0.6 0.2 0.0 0.0 0.0 1.2 0.0 0.0 0.0 0.0 0.0 5.3 4.8 0.5 0.1 0.0 0.0 0.3 0.2 2.7 13.7 15.9 6.1 3.7 1.8 1.0 2.2 1.9 2.3 1.3 2.9 1.0
0.0 0.0 0.0 0.0 0.0 0.0 0.0 0.0 0.0 1.0 13.5 1.9 0.0 0.7 0.1 2.6 2.6 2.8 0.8 0.0 0.0 0.0 3.9 8.9 16.2 7.6 0.7 0.3 0.3 0.1 0.4 1.1 12.9 13.9 21.3 10.5 0.7 0.1 0.0 0.0 2.6 1.5 4.2 3.7
0.0 0.0 0.0 0.0 0.0 0.0 0.0 0.0 0.0 0.0 18.3 0.5 0.0 1.8 1.0 0.0 1.7 3.3 1.8 1.4 0.8 0.2 7.1 15.1 9.2 6.7 2.1 4.2 1.7 0.7 2.2 5.0 19.2 16.2 27.0 3.7 0.2 0.6 0.4 7.6 8.2 4.0 2.8 2.5
0.0 0.0 0.0 0.0 0.0 0.0 0.0 0.0 0.0 0.0 8.1 0.0 0.0 0.0 0.2 0.4 1.1 6.3 2.9 4.3 3.6 5.8 18.8 12.7 8.4 3.6 0.4 1.3 0.0 0.3 1.2 8.4 8.0 9.7 25.6 15.1 0.3 1.2 6.0 5.7 3.7 1.5 1.2 0.7
0.0 0.0 0.0 0.0 0.0 0.0 0.0 0.0 0.0 0.0 0.6 0.5 0.0 0.0 0.0 0.0 0.0 0.8 2.6 1.3 0.6 1.8 9.5 8.3 4.4 6.5 1.9 1.3 6.2 0.2 5.5 3.6 6.9 5.3 4.4 1.6 1.1 4.2 2.0 2.0 4.6 2.0 0.9 0.4
0.0 0.0 0.0 0.0 0.0 0.0 0.0 0.0 0.0 0.0 4.4 7.1 3.3 2.8 0.0 0.0 0.0 0.0 1.9 0.1 0.5 1.7 0.1 4.7 5.8 9.6 0.3 5.2 1.9 2.2 1.4 0.0 4.4 3.7 3.4 3.8 1.8 0.3 0.2 0.5 1.2 0.7 0.6 0.5
0.0 0.0 0.0 0.0 0.0 0.0 0.0 0.0 0.0 0.0 0.5 25.7 10.7 0.0 0.7 0.0 0.0 0.0 0.0 0.0 0.0 0.0 0.0 4.6 5.5 6.8 0.0 2.5 2.4 2.4 2.0 2.8 8.3 10.9 5.1 2.5 0.8 0.9 0.9 0.9 0.5 0.3 1.2 1.6
0.0 0.0 0.0 0.0 0.0 0.0 0.0 0.0 0.0 0.0 0.7 24.6 8.6 0.7 0.0 0.0 0.0 0.0 0.0 0.0 0.0 0.0 4.3 7.3 5.6 0.5 0.7 1.8 2.3 3.2 0.7 4.4 13.0 16.8 6.8 5.9 3.5 1.6 1.1 1.4 2.1 1.3 0.5 0.0
0.0 0.0 0.0 0.0 0.0 0.0 0.0 23.9 0.0 0.0 0.0 9.5 19.8 2.1 2.0 0.0 0.0 0.0 0.0 0.0 0.0 0.2 2.4 3.6 1.5 0.0 0.7 12.3 9.3 1.9 1.0 0.9 2.1 6.3 4.7 5.3 4.2 2.5 1.6 1.4 0.8 0.0 0.0 0.0
0.0 0.0 0.0 0.0 0.0 0.0 0.4 2.7 0.0 0.0 0.0 15.4 30.5 5.7 1.1 0.5 0.7 2.1 0.0 0.6 0.3 0.2 2.8 4.2 1.6 0.7 2.4 13.3 11.5 3.4 2.0 2.2 2.5 2.6 3.4 4.3 1.8 1.5 0.4 0.0 0.0 0.0 0.0 0.0
0.0 0.0 0.0 0.0 0.0 0.0 0.0 0.0 0.0 0.0 0.0 5.6 29.9 14.8 2.2 0.0 2.5 6.4 1.1 2.7 2.8 4.1 3.2 2.5 1.8 1.5 2.8 12.2 0.5 0.0 0.2 0.4 1.3 1.2 0.4 1.0 0.5 0.0 0.0 0.0 0.0 0.0 0.0 0.1
0.0 0.0 0.0 0.0 0.0 3.7 0.0 0.0 0.0 0.0 0.8 25.6 13.1 8.6 17.7 0.0 0.9 2.4 5.7 3.6 19.3 0.8 7.9 2.0 1.7 5.4 16.8 5.1 0.6 0.1 0.3 0.7 0.4 0.0 0.1 0.0 0.3 0.0 0.0 0.0 0.0 0.2 1.9 1.2
0.0 0.0 4.2 91.6 1.5 0.0 0.0 0.0 8.0 13.6 4.2 4.2 7.0 0.7 4.9 0.1 3.2 10.9 12.0 7.2 16.2 20.5 3.9 0.2 6.8 8.5 4.1 1.2 0.2 0.4 0.5 0.3 0.0 0.0 0.0 0.0 0.3 0.4 0.3 0.9 1.2 2.0 2.1 1.2
0.0 55.8 58.5 0.0 0.0 0.0 9.2 68.1 58.8 46.3 38.4 5.6 0.9 0.3 7.6 1.7 9.2 9.2 1.9 14.5 10.9 22.0 11.5 10.2 12.8 13.8 10.6 2.0 0.8 0.1 0.0 0.0 0.0 0.0 0.0 0.2 0.5 1.1 2.5 1.8 0.3 0.5 1.1 1.9
0.0 0.0 0.0 0.6 14.2 42.4 72.2 53.0 29.4 14.2 11.1 1.7 0.9 1.2 2.5 6.3 1.7 10.9 10.4 14.8 13.7 14.9 5.3 17.7 16.1 9.5 1.4 0.3 0.5 0.3 0.2 0.1 0.1 0.3 0.4 0.5 1.2 1.3 1.9 1.8 2.3 2.5 2.5 3.4
0.0 4.0 33.7 36.7 49.4 71.4 53.6 36.4 20.1 10.1 5.7 2.5 4.0 6.2 2.9 4.4 5.1 16.6 10.3 14.4 18.5 4.5 19.6 14.7 10.5 6.0 3.0 2.7 3.1 1.3 0.6 0.2 0.3 0.6 0.5 0.7 1.2 1.2 1.5 2.3 2.7 2.8 3.6 5.3
23.0 44.9 61.9 41.5 43.3 17.9 13.3 6.6 5.3 5.3 4.1 2.6 3.9 3.2 3.2 2.6 13.7 14.9 18.8 13.4 10.5 23.3 14.9 17.2 13.1 8.1 5.8 3.5 2.7 2.0 3.6 2.4 2.9 3.3 3.5 3.9 4.7 4.9 6.4 7.6 8.8 8.5 11.9 15.4
29.4 21.3 30.6 16.8 11.4 9.2 7.8 5.4 3.4 2.2 2.2 2.9 4.1 5.9 5.8 12.1 17.8 11.6 9.5 13.5 14.4 10.9 17.9 14.2 9.7 6.9 5.4 5.1 4.9 5.5 6.4 6.6 7.2 7.4 7.6 8.9 9.0 8.3 11.0 11.7 11.6 10.1 11.1 11.7
11.9 11.2 14.6 8.4 7.2 9.8 7.3 6.9 6.8 3.4 5.4 5.1 7.4 16.4 22.2 20.9 11.1 10.0 10.0 8.9 14.2 17.4 12.2 7.0 5.8 6.3 6.3 7.0 7.4 8.3 8.4 7.9 7.9 7.9 7.4 7.8 8.6 8.1 9.2 9.4 9.7 9.7 8.2 8.5
11.7 12.2 9.8 9.8 8.1 10.7 10.1 7.7 6.4 3.1 4.6 13.9 15.2 17.6 15.2 9.0 11.4 12.2 10.6 21.8 21.3 12.0 11.3 10.4 8.6 9.0 10.1 9.5 9.5 9.9 9.5 8.9 8.4 8.1 7.7 8.2 8.0 6.1 4.3 6.3 9.0 6.7 6.9 6.5